Aérodrome :
LOGIN :

S'inscrire | Disclaimer

   EN    FR    IT 

 










Légende :    VFR   VFR Marginal   IFR   IFR Intensif   IFR Très Intensif
Visi : 
Plafond : 
>= 8 km
>= 3000ft
5 à 8 km
1000 à 3000 ft
1500m à 5 km
500 à 1000 ft
800 à 1500m
200 à 500 ft
< 800m
< 200 ft
Symboles :   Orages  Brouillard  Fortes neiges  Fortes précipitations  Vent > 20 kt
SIGMETs :   Divers  Orages  Givrage  Turbulence  Onde Orograph.  Cendres Volcan.






- Altitude de l'aérodrome : 41 ft


LIRE - Pratica di Mare Air Base Pomezia

DERNIER METAR :
  • 180255Z 04003KT 9999 SCT020 06/04 Q1025 RMK SCT VIS MIN 9999 WIND THR13 06003KT WIND THR31 05002KT BLU

METARs EXPIRÉS :
  • 180155Z 04003KT 9999 SCT020 06/04 Q1025 RMK SCT VIS MIN 9999 WIND THR13 06002KT WIND THR31 05003KT BLU
  • 180055Z 05004KT 9999 FEW020 06/04 Q1026 RMK FEW VIS MIN 9999 WIND THR13 06002KT WIND THR31 05003KT BLU

TAF TAF LIRE
Valide du 18 à 03h jusqu'au 18 à 12h UTC


180200Z 1803/1812 09008KT 9999 FEW030



MET'MAP, la Météo Aéronautique d'un coup d'oeil ! - Copyright ORBIFLY Décembre 2007 - Disclaimer

ORBIFLY MET'MAP TEAM :

Programmation & Développement : Alexandra Zaïnal
Sur une idée originale de : Baudouin d'Aumeries
Assistance à la programmation : Marc-Olivier Méhu
Soutien technique & logistique : Manuel Goepfert

Contact : metmap@orbifly.com




SOURCES & CREDITS :

   NOAA